User: anonymous   Login
Location: Unspecified
(0.0000°N, 0.0000°E)
Time: 21:42:59
(UTC+00:00)
Language:

NOSS 2-1 (D) - Orbit

View from above orbital plane
View from above orbital plane
View from above satellite
View from above satellite

Ground track
Ground track

The orbit data is extracted from the following two-line orbital elements,

1 20692U 90050D   20050.17815939 0.00000100  00000-0  15917-4 0    04
2 20692  63.3197 178.5331 0868306  44.5123 315.4877 13.41995568    04
Epoch (UTC): 19 February 2020 04:16:32
Eccentricity: 0.0868306
inclination: 63.3197°
perigee height: 452 km
apogee height: 1751 km
right ascension of ascending node: 178.5331°
argument of perigee: 44.5123°
revolutions per day: 13.41995568
mean anomaly at epoch: 315.4877°
orbit number at epoch: 0

The dashed part of the orbit path shows where the satellite is in the earth's shadow,  

DLR